This is the latest recevied weather packets stored in our database for station/object WX7EM. If no packets are shown the sender has not sent any weather packets the latest 10 day(s).
| Time | Temp. | Humidity | Pressure | Rain* | Wind** | Luminosity | Snow |
|---|---|---|---|---|---|---|---|
| 1778167140 | 12.22° C | 88% | 1019.6 hPa | 0 mm | - | 95 W/m² | - |
| 1778166836 | 12.22° C | 88% | 1019.8 hPa | 0 mm | - | 86 W/m² | - |
| 1778166534 | 12.22° C | 88% | 1019.8 hPa | 0 mm | - | 82 W/m² | - |
| 1778166230 | 12.22° C | 87% | 1020 hPa | 0 mm | - | 79 W/m² | - |
| 1778165926 | 12.22° C | 88% | 1019.9 hPa | 0 mm | - | 75 W/m² | - |
| 1778165623 | 11.67° C | 88% | 1019.7 hPa | 0 mm | - | 68 W/m² | - |
| 1778165320 | 12.22° C | 88% | 1019.9 hPa | 0 mm | - | 72 W/m² | - |
| 1778165017 | 12.22° C | 89% | 1019.9 hPa | 0 mm | - | 69 W/m² | - |
| 1778164714 | 11.67° C | 90% | 1019.7 hPa | 0 mm | - | 72 W/m² | - |
| 1778164411 | 11.67° C | 90% | 1019.7 hPa | 0 mm | - | 67 W/m² | - |
| 1778164107 | 11.67° C | 90% | 1019.7 hPa | 0 mm | - | 63 W/m² | - |
| 1778163803 | 11.67° C | 90% | 1019.8 hPa | 0 mm | - | 52 W/m² | - |
| 1778163500 | 11.67° C | 91% | 1020 hPa | 0 mm | - | 49 W/m² | - |
| 1778163197 | 11.11° C | 91% | 1019.7 hPa | 0 mm | - | 42 W/m² | - |
| 1778162894 | 11.11° C | 91% | 1019.6 hPa | 0 mm | - | 36 W/m² | - |
| 1778162591 | 11.11° C | 91% | 1019.7 hPa | 0 mm | - | 31 W/m² | - |
| 1778162288 | 11.11° C | 91% | 1019.6 hPa | 0 mm | - | 28 W/m² | - |
| 1778161985 | 11.11° C | 92% | 1019.4 hPa | 0 mm | - | 25 W/m² | - |
| 1778161682 | 11.11° C | 92% | 1019.5 hPa | 0 mm | - | 18 W/m² | - |
| 1778161378 | 11.11° C | 92% | 1019.4 hPa | 0 mm | - | 17 W/m² | - |
| 1778161074 | 11.11° C | 92% | 1019.2 hPa | 0 mm | - | 15 W/m² | - |
| 1778160770 | 11.11° C | 92% | 1019.2 hPa | 0 mm | - | 13 W/m² | - |
| 1778160469 | 11.11° C | 92% | 1019.5 hPa | 0 mm | - | 11 W/m² | - |
| 1778160165 | 11.11° C | 92% | 1019.6 hPa | 0 mm | - | 9 W/m² | - |
| 1778159862 | 11.11° C | 92% | 1019.6 hPa | 0 mm | - | 8 W/m² | - |
* Rain latest hour (hover to see other rain measurements)
** Current wind speed in m/s (hover to see current wind gust speed)